EN

Hourly Weather Dzuarikau

Today, 29 October, Thursday

Time Temperature Precipitation Wind Pressure Humidity
00:00 +14°C° 0 mm 1 mps 706 mmHg 62%
01:00 +14°C° 0 mm 1 mps 706 mmHg 62%
02:00 +14°C° 0 mm 1 mps 706 mmHg 61%
03:00 +13°C° 0 mm 1 mps 706 mmHg 61%
04:00 +13°C° 0 mm 1 mps 706 mmHg 60%
05:00 +13°C° 0 mm 1 mps 706 mmHg 60%
06:00 +14°C° 0 mm 1 mps 705 mmHg 60%
07:00 +15°C° 0 mm 1 mps 706 mmHg 56%
08:00 +18°C° 0 mm 1 mps 706 mmHg 52%
09:00 +20°C° 0 mm 1 mps 706 mmHg 48%
10:00 +21°C° 0 mm 1 mps 706 mmHg 44%
11:00 +22°C° 0 mm 1 mps 706 mmHg 40%
12:00 +24°C° 0 mm 1 mps 706 mmHg 36%
13:00 +24°C° 0 mm 2 mps 706 mmHg 37%
14:00 +23°C° 0 mm 2 mps 705 mmHg 37%
15:00 +23°C° 0 mm 2 mps 705 mmHg 39%
16:00 +21°C° 0 mm 1 mps 705 mmHg 46%
17:00 +19°C° 0 mm 1 mps 705 mmHg 52%
18:00 +18°C° 0 mm 1 mps 705 mmHg 59%
19:00 +16°C° 0 mm 1 mps 705 mmHg 59%
20:00 +16°C° 0 mm 1 mps 705 mmHg 58%
21:00 +16°C° 0 mm 1 mps 705 mmHg 58%
22:00 +16°C° 0 mm 1 mps 705 mmHg 58%
23:00 +16°C° 0 mm 1 mps 704 mmHg 58%

Tomorrow, 30 October, Friday

Time Temperature Precipitation Wind Pressure Humidity
00:00 +16°C° 0 mm 1 mps 704 mmHg 58%
01:00 +15°C° 0 mm 1 mps 704 mmHg 58%
02:00 +15°C° 0 mm 1 mps 704 mmHg 58%
03:00 +15°C° 0 mm 1 mps 703 mmHg 59%
04:00 +15°C° 0 mm 1 mps 703 mmHg 59%
05:00 +15°C° 0 mm 1 mps 703 mmHg 59%
06:00 +15°C° 0 mm 1 mps 703 mmHg 58%
07:00 +16°C° 0 mm 1 mps 704 mmHg 57%
08:00 +17°C° 0 mm 2 mps 704 mmHg 56%
09:00 +18°C° 0 mm 2 mps 705 mmHg 54%
10:00 +19°C° 0 mm 2 mps 705 mmHg 50%
11:00 +20°C° 0 mm 2 mps 705 mmHg 45%
12:00 +21°C° 0 mm 2 mps 705 mmHg 41%
13:00 +21°C° 0 mm 2 mps 705 mmHg 43%
14:00 +20°C° 0 mm 2 mps 704 mmHg 46%
15:00 +20°C° 0 mm 2 mps 704 mmHg 49%
16:00 +19°C° 0 mm 2 mps 704 mmHg 55%
17:00 +18°C° 0 mm 1 mps 704 mmHg 61%
18:00 +16°C° 0 mm 1 mps 704 mmHg 66%
19:00 +15°C° 0 mm 1 mps 704 mmHg 64%
20:00 +15°C° 0 mm 1 mps 704 mmHg 63%
21:00 +15°C° 0 mm 1 mps 704 mmHg 61%
22:00 +15°C° 0 mm 1 mps 704 mmHg 59%
23:00 +15°C° 0 mm 1 mps 703 mmHg 57%

Day after tomorrow, 31 October, Saturday

Time Temperature Precipitation Wind Pressure Humidity
00:00 +15°C° 0 mm 1 mps 703 mmHg 55%
01:00 +15°C° 0 mm 1 mps 703 mmHg 56%
02:00 +15°C° 0 mm 1 mps 703 mmHg 56%
03:00 +14°C° 0 mm 1 mps 703 mmHg 57%
04:00 +15°C° 0 mm 2 mps 702 mmHg 57%
05:00 +15°C° 0 mm 2 mps 702 mmHg 58%
06:00 +15°C° 0 mm 2 mps 702 mmHg 58%
07:00 +16°C° 0 mm 1 mps 702 mmHg 55%
08:00 +18°C° 0 mm 1 mps 702 mmHg 53%
09:00 +19°C° 0 mm 1 mps 703 mmHg 50%
10:00 +20°C° 0.1 mm 1 mps 703 mmHg 48%
11:00 +22°C° 0.1 mm 1 mps 703 mmHg 46%
12:00 +23°C° 0.1 mm 1 mps 703 mmHg 44%
13:00 +23°C° 0.1 mm 2 mps 702 mmHg 44%
14:00 +23°C° 0.1 mm 2 mps 702 mmHg 44%
15:00 +23°C° 0.1 mm 2 mps 702 mmHg 43%
16:00 +20°C° 0 mm 2 mps 702 mmHg 51%
17:00 +18°C° 0 mm 2 mps 702 mmHg 59%
18:00 +17°C° 0 mm 2 mps 702 mmHg 66%
19:00 +17°C° 0 mm 2 mps 702 mmHg 64%
20:00 +17°C° 0 mm 2 mps 702 mmHg 63%
21:00 +17°C° 0 mm 2 mps 702 mmHg 61%
22:00 +16°C° 0 mm 2 mps 702 mmHg 61%
23:00 +16°C° 0 mm 2 mps 702 mmHg 61%

1 November, Sunday

Time Temperature Precipitation Wind Pressure Humidity
00:00 +16°C° 0 mm 2 mps 702 mmHg 61%
01:00 +15°C° 0 mm 2 mps 702 mmHg 67%
02:00 +14°C° 0 mm 2 mps 703 mmHg 73%
03:00 +14°C° 0 mm 2 mps 703 mmHg 79%
04:00 +13°C° 0 mm 1 mps 703 mmHg 79%
05:00 +13°C° 0 mm 1 mps 703 mmHg 80%
06:00 +13°C° 0 mm 1 mps 703 mmHg 81%
07:00 +14°C° 0 mm 1 mps 703 mmHg 78%
08:00 +15°C° 0 mm 1 mps 703 mmHg 74%
09:00 +16°C° 0 mm 2 mps 704 mmHg 71%
10:00 +17°C° 0 mm 2 mps 703 mmHg 69%
11:00 +17°C° 0 mm 2 mps 703 mmHg 66%
12:00 +18°C° 0 mm 2 mps 703 mmHg 64%
13:00 +18°C° 0 mm 2 mps 703 mmHg 63%
14:00 +18°C° 0 mm 2 mps 703 mmHg 62%
15:00 +18°C° 0 mm 2 mps 703 mmHg 61%
16:00 +17°C° 0 mm 2 mps 703 mmHg 64%
17:00 +16°C° 0 mm 1 mps 703 mmHg 68%
18:00 +15°C° 0 mm 1 mps 703 mmHg 72%
19:00 +15°C° 0 mm 1 mps 703 mmHg 71%
20:00 +14°C° 0 mm 1 mps 703 mmHg 71%
21:00 +14°C° 0 mm 1 mps 703 mmHg 71%
22:00 +14°C° 0 mm 2 mps 703 mmHg 67%
23:00 +14°C° 0 mm 2 mps 704 mmHg 64%

2 November, Monday

Time Temperature Precipitation Wind Pressure Humidity
00:00 +15°C° 0 mm 2 mps 704 mmHg 61%
01:00 +14°C° 0 mm 2 mps 704 mmHg 65%
02:00 +14°C° 0 mm 2 mps 704 mmHg 70%
03:00 +13°C° 0 mm 2 mps 704 mmHg 74%
04:00 +13°C° 0.1 mm 2 mps 704 mmHg 77%
05:00 +12°C° 0.1 mm 2 mps 705 mmHg 80%
06:00 +12°C° 0.1 mm 2 mps 705 mmHg 83%
07:00 +13°C° 0 mm 2 mps 706 mmHg 82%
08:00 +13°C° 0 mm 2 mps 706 mmHg 82%
09:00 +14°C° 0 mm 2 mps 706 mmHg 81%
10:00 +14°C° 0 mm 2 mps 707 mmHg 81%
11:00 +14°C° 0 mm 2 mps 707 mmHg 80%
12:00 +14°C° 0 mm 2 mps 707 mmHg 80%
13:00 +14°C° 0.1 mm 2 mps 707 mmHg 80%
14:00 +14°C° 0.1 mm 2 mps 707 mmHg 79%
15:00 +14°C° 0.1 mm 2 mps 707 mmHg 78%
16:00 +14°C° 0 mm 2 mps 707 mmHg 80%
17:00 +13°C° 0 mm 1 mps 707 mmHg 82%
18:00 +13°C° 0 mm 1 mps 708 mmHg 83%
19:00 +13°C° 0 mm 1 mps 708 mmHg 83%
20:00 +13°C° 0 mm 1 mps 708 mmHg 84%
21:00 +13°C° 0 mm 1 mps 708 mmHg 84%
22:00 +13°C° 0.1 mm 1 mps 708 mmHg 84%
23:00 +12°C° 0.1 mm 1 mps 708 mmHg 83%

3 November, Tuesday

Time Temperature Precipitation Wind Pressure Humidity
00:00 +12°C° 0.1 mm 1 mps 708 mmHg 83%
01:00 +12°C° 0.1 mm 1 mps 708 mmHg 85%
02:00 +11°C° 0.1 mm 1 mps 708 mmHg 87%
03:00 +11°C° 0.1 mm 1 mps 708 mmHg 88%
04:00 +11°C° 0 mm 1 mps 708 mmHg 89%
05:00 +10°C° 0 mm 1 mps 708 mmHg 89%
06:00 +10°C° 0 mm 1 mps 708 mmHg 90%
07:00 +11°C° 0 mm 1 mps 708 mmHg 85%
08:00 +12°C° 0 mm 1 mps 708 mmHg 80%
09:00 +13°C° 0 mm 1 mps 708 mmHg 74%
10:00 +14°C° 0 mm 1 mps 708 mmHg 69%
11:00 +16°C° 0 mm 2 mps 708 mmHg 63%
12:00 +17°C° 0 mm 2 mps 708 mmHg 57%
13:00 +17°C° 0 mm 2 mps 708 mmHg 56%
14:00 +17°C° 0 mm 2 mps 707 mmHg 55%
15:00 +17°C° 0 mm 2 mps 707 mmHg 54%
16:00 +16°C° 0 mm 2 mps 707 mmHg 57%
17:00 +15°C° 0 mm 2 mps 707 mmHg 61%
18:00 +13°C° 0 mm 1 mps 707 mmHg 65%
19:00 +13°C° 0 mm 1 mps 707 mmHg 65%
20:00 +12°C° 0 mm 1 mps 707 mmHg 66%
21:00 +12°C° 0 mm 1 mps 707 mmHg 66%
22:00 +12°C° 0 mm 1 mps 707 mmHg 66%
23:00 +12°C° 0 mm 1 mps 707 mmHg 66%
Show more